Location: Godiavel Galaoual
(15.2485°N, 12.6604°W)
Time: 01:20:04
(UTC+00:00)

Explorer 7 - Pass Details

Date: 16 June 2021
Orbit: 484 x 676 km, 50.3° (Epoch: 29 July)

Event Time Altitude Azimuth Distance (km) Brightness Sun altitude
Rises 06:22:36 0° 338° (NNW) 2,737 10.4 -0.4°
Reaches altitude 10° 06:25:15 10° 352° (N) 1,803 9.7 0.2°
Maximum altitude 06:28:33 23° 46° (NE) 1,133 9.7 0.9°
Drops below altitude 10° 06:31:43 10° 101° (E) 1,720 10.4 1.6°
Sets 06:34:10 0° 116° (ESE) 2,578 10.9 2.2°
